World > North America > United States > North Carolina

Hourly Union Cross, NC Regional Weather

Feedback E-mail the Weather

Quick WX

Union Cross, NC Weather Maps

°F °C°F °C
Union Cross Weather Map
UTC Time: 7/1/2022, 01:05
Your Time:

Union Cross, NC Regional Weather

Expires:202207010100;;466086
ASUS42 KRAH 010010
RWRRAH
NORTH CAROLINA WEATHER ROUNDUP
NATIONAL WEATHER SERVICE RALEIGH NC
800 PM EDT THU JUN 30 2022

NOTE: "FAIR" INDICATES FEW OR NO CLOUDS BELOW 12,000 FEET WITH NO
SIGNIFICANT WEATHER AND/OR OBSTRUCTIONS TO VISIBILITY.


NCZ021-022-025-041-071-084-088-010100-
CENTRAL NORTH CAROLINA
  
CITY           SKY/WX    TMP DP  RH WIND       PRES   REMARKS
CHARLOTTE      PTCLDY    85  67  54 S14       30.16R                  
GREENSBORO     MOCLDY    82  66  58 S8        30.16S                  
WINSTON-SALEM  MOCLDY    84  65  52 SE3       30.18R                  
RALEIGH-DURHAM CLOUDY    86  67  52 S7        30.15S                  
FORT BRAGG     CLOUDY    83  68  59 S7        30.14S                  
FAYETTEVILLE   CLOUDY    82  69  64 S7        30.15F                  
BURLINGTON     CLOUDY    83  64  52 CALM      30.16S                  
ROXBORO        MOCLDY    81  68  65 S3        30.18S                  
HENDERSON      MOCLDY    80  64  58 S3        30.16S                  
LOUISBURG      MOCLDY    81  68  65 S3        30.18S HAZE             
LAURINBURG     CLOUDY    84  71  65 S6        30.16S                  
$$
 

SKY/WX - Weather  TMP - Temperature  DP - Dew Point  RH - Humidity
WIND - Wind Direction/Speed PRES - Barometric Pressure VSB - Visibility
WCI - Wind Chill Index E13G22 Wind - East Wind 13 mph/Gusts of 22 mph

Trending Headlines

Union Cross Radar Loop



Union Cross Quick Facts


National Two Day Weather Forecast


E-mail the Union Cross Weather Forecast

Voice your opinion or tell us about page issues...